Location: Hookston
(37.9413°N, 122.0527°W)
Time: 14:36:34
(UTC+00:00)

Thor Agena Rocket - Pass Details

Date: 29 May 2024
Orbit: 758 x 804 km, 99.1° (Epoch: 17 June)

Event Time Altitude Azimuth Distance (km) Brightness Sun altitude
Rises 12:07:39 0° 10° (N) 3,303 7.6 -7.7°
Reaches altitude 10° 12:09:59 10° 9° (N) 2,375 6.7 -7.3°
Maximum altitude 12:15:12 70° 287° (WNW) 853 3.6 -6.4°
Drops below altitude 10° 12:20:25 10° 204° (SSW) 2,374 5.5 -5.6°
Sets 12:22:45 0° 202° (SSW) 3,301 6.3 -5.2°
Enters shadow 12:22:52 - 202° (SSW) 3,349 6.3 -5.2°
